Simultaneous Nadir Overpasses (SNOs) Predictions

Prediction of SNOs between LANDSAT-8 and NOAA-19 Satellite Orbit:

Table of predicted SNOs for the next 14.0 days since TLE Epoch: 9/9/2023
Index Date (LANDSAT-8) Time (LANDSAT-8) Lat,Lon (LANDSAT-8) SZA (LANDSAT-8 ) Date (NOAA-19) Time (NOAA-19) Lat,Lon (NOAA-19) SZA (NOAA-19 ) Distance(km) Time Diff (sec)
1 09/09/2023 08:02:26 80.92, 96.52 77.46 09/09/2023 08:01:44 80.93, 96.66 77.46 2.48 42
2 09/09/2023 08:51:52 -80.94, -95.54 102.49 09/09/2023 08:52:47 -80.94, -95.43 102.46 1.98 55
3 09/11/2023 14:25:38 80.93, 0.81 78.34 09/11/2023 14:25:07 80.93, 0.67 78.32 2.33 31
4 09/11/2023 15:15:05 -80.92, 168.41 101.65 09/11/2023 15:16:11 -80.93, 168.23 101.64 3.19 66
5 09/13/2023 20:48:50 80.92, -95.04 79.22 09/13/2023 20:48:29 80.93, -94.97 79.22 1.15 21
6 09/16/2023 03:12:01 80.94, 169.35 80.13 09/16/2023 03:11:51 80.93, 169.34 80.12 0.96 10
7 09/18/2023 09:35:13 80.92, 73.26 80.98 09/18/2023 09:35:14 80.92, 73.23 80.98 1.17 1
8 09/20/2023 15:09:12 -80.51, 165.10 98.93 09/20/2023 15:07:58 -80.80, 164.16 98.80 36.03 74
9 09/20/2023 15:58:23 80.94, -22.25 81.91 09/20/2023 15:58:35 80.93, -22.16 81.92 1.76 12
10 09/22/2023 21:32:08 -80.92, 74.14 97.23 09/22/2023 21:31:04 -80.92, 74.16 97.26 0.32 64



Historial Predications of SNOs between LANDSAT-8 and NOAA-19
